Location: Baia de Cri?
(46.1667°N, 22.7167°E)
Time: 02:38:53
(UTC+00:00)

Daily predictions for brighter satellites

Satellite Brightness Start Highest point End
(mag) Time Altitude Azimuth Time Altitude Azimuth Time Altitude Azimuth
CZ-4C R/B 4.5 02:48:34 15° N 02:48:34 15° N 02:51:16 10° NNE
BREEZE-M DEB (TANK) 4.1 03:05:08 69° W 03:06:14 83° NNW 03:31:31 10° ENE
Cosmos 2082 Rocket 4.2 03:12:57 13° N 03:16:30 23° NE 03:20:56 10° E
Cosmos 2278 Rocket 4.1 03:15:52 10° SSE 03:20:34 28° ESE 03:25:18 10° NE
Cosmos 1833 Rocket 2.5 03:27:30 85° WNW 03:27:36 86° WSW 03:33:13 10° SSE
Cosmos 2181 Rocket 4.2 03:27:31 10° N 03:33:54 72° E 03:40:19 10° SSE
ARIANE 6 FM1 Upper Stage 3.6 03:38:08 40° SSE 03:38:08 40° SSE 03:40:46 10° SE
ATLAS 2AS CENTAUR R/B 3.6 03:39:35 22° NNW 03:43:36 42° NE 03:49:58 10° ESE
Cosmos 1943 Rocket 3.1 03:39:13 10° S 03:44:27 47° ESE 03:49:42 10° NE
FengYun 1-2 T 4.1 03:42:35 10° N 03:48:05 62° WNW 03:49:51 41° SW
IRS-1D 3.5 03:43:10 10° NNE 03:48:31 86° E 03:53:50 10° SSW
BREEZE-M DEB (TANK) 3.8 03:45:26 38° WNW 03:48:52 61° SW 03:52:52 10° SE
Meteor 2-10 Rocket 4.2 03:45:39 10° S 03:50:33 53° E 03:55:40 10° NNE
Cosmos 1932 4.4 03:50:49 20° SW 03:55:27 87° NW 04:02:02 10° NE
Cosmos 1515 Rocket 3.9 04:00:36 47° SW 04:00:36 47° SW 04:04:02 10° S
Okean 3 3.7 03:57:22 19° N 04:00:04 62° E 04:04:00 10° SSE
Gblst 52 Del rocket 4.3 04:00:17 39° NW 04:02:07 60° NNE 04:07:37 10° E
BREEZE-M DEB (TANK) 3.4 04:03:27 46° NNE 04:03:27 46° NNE 04:07:02 10° E
Cosmos 2074 Rocket 4.1 03:59:31 10° S 04:05:49 82° E 04:12:08 10° N
Cosmos 44 4.3 04:02:39 21° NNW 04:06:01 48° NE 04:11:14 10° ESE
Lacrosse 5 rocket 3.2 04:06:40 16° N 04:06:40 16° N 04:08:42 10° NE
Meteor 2-13 Rocket 4.3 04:00:47 10° NNW 04:06:54 76° W 04:12:58 10° S
Cosmos 1743 Rocket 4.3 04:03:52 10° S 04:08:11 53° E 04:12:29 10° NNE
ATLAS CENTAUR R/B 2.0 04:10:40 29° NNE 04:11:21 32° NE 04:14:06 10° ESE
COSMO-SKYMED 1 2.3 04:07:55 10° S 04:12:00 68° WSW 04:13:47 32° NNW
Timation 1 Rocket 4.3 04:08:02 20° NNW 04:12:18 87° WSW 04:18:18 10° SSE
Helios 1A Rocket 2.4 04:16:30 10° SSE 04:19:51 81° ENE 04:21:50 23° N
Nadezhda 3 Rocket 4.0 04:14:52 10° N 04:21:09 86° E 04:27:28 10° S
CZ-4 R/B 3.8 04:16:30 10° N 04:21:11 57° WNW 04:25:56 10° SSW
TIMED 4.3 04:22:05 10° SSW 04:26:17 64° WNW 04:30:31 10° NNE
IGS 5A 3.3 04:24:33 10° NNE 04:28:33 86° ESE 04:32:30 10° SSW
Okean 3 Rocket 4.1 04:24:57 10° SW 04:28:56 34° WNW 04:33:00 10° N
Okean 2 3.7 04:28:57 36° WNW 04:29:20 37° W 04:32:53 10° SSW
Cosmos 1805 Rocket 3.6 04:27:38 10° SSW 04:31:59 56° WNW 04:36:20 10° N
SeaSat 1 3.4 04:27:22 10° NE 04:32:09 51° ESE 04:36:53 10° S
USA 307 3.7 04:32:02 23° NNW 04:33:50 35° NNE 04:37:27 10° E
USA 32 4.1 04:29:11 10° S 04:34:25 82° E 04:39:41 10° N
GEOS 3 Rocket 3.7 04:30:01 10° SSE 04:35:09 62° SW 04:39:00 19° NW
RUBIN 8/PSLV 4.5 04:32:15 10° N 04:36:23 57° WNW 04:40:29 10° SSW
Sich 1 3.7 04:34:01 10° SW 04:37:44 30° WNW 04:41:27 10° N
CZ-4C R/B 4.4 04:33:36 10° NNW 04:38:17 21° NNE 04:43:48 10° ENE
Cosmos 1500 Rocket 3.7 04:36:21 10° SSW 04:40:32 46° WNW 04:44:46 10° N
SL-23 DEB 3.2 04:40:12 28° W 04:41:40 67° NNW 04:44:58 10° ENE
Cosmos 1269 Rocket 4.0 04:36:29 10° SSW 04:41:46 84° WNW 04:47:06 10° NNE
Cosmos 2154 Rocket 4.0 04:36:54 10° SSW 04:43:08 63° WNW 04:49:24 10° N
Cosmos 2084 4.4 04:42:44 24° WNW 04:43:40 26° NW 04:47:12 10° NNE
DMSP B5D1-3 4.5 04:39:13 10° S 04:44:13 62° WSW 04:49:15 10° NNW
Okean 1-7 3.6 04:40:28 10° N 04:44:33 55° ENE 04:48:38 10° SSE
Cosmos 1408 Rocket 4.0 04:42:10 10° SW 04:46:10 35° WNW 04:50:09 10° N
SJ 16-02 4.0 04:45:57 10° SSE 04:49:14 22° E 04:52:32 10° NE
Cosmos 921 Rocket 3.5 04:51:53 10° SW 04:55:50 35° WNW 04:59:46 10° N
MOS 1 Rocket 3.5 04:51:35 10° NNE 04:56:08 67° ESE 05:00:26 10° S
COSMOS 2406 3.8 04:51:49 10° NNW 04:57:31 60° ENE 05:03:11 10° SE
Cosmos 1763 Rocket 3.6 04:55:45 10° NNW 05:00:49 78° ENE 05:05:53 10° SSE
Cosmos 1140 Rocket 3.4 04:55:54 10° SW 05:00:55 60° WNW 05:06:01 10° NNE
Dummy Sat-01 4.5 04:57:30 10° S 05:01:08 71° W 05:04:48 10° N
Cosmos 2082 Rocket 2.2 04:55:30 10° NNW 05:01:10 73° WSW 05:06:49 10° SSE
Cosmos 2341 Rocket 4.5 04:57:16 10° S 05:03:36 70° E 05:09:57 10° NNE
Cosmos 2278 Rocket 2.4 04:58:53 10° SW 05:04:21 49° WNW 05:09:51 10° NNE
Landsat 7 3.8 05:00:06 10° NNE 05:04:47 86° ESE 05:09:27 10° SSW
Cosmos 1758 3.7 05:02:47 10° SW 05:06:12 34° WNW 05:09:38 10° N
NOSS 8 (H) 4.2 05:03:56 15° NW 05:06:17 70° SW 05:09:48 10° SSE
ARIANE 5 R/B 3.1 05:03:31 10° NNE 05:08:38 64° ESE 05:13:38 10° S
Timation 2 Rocket 4.2 05:03:44 10° SW 05:10:10 53° NW 05:16:23 10° NNE
Cosmos 1833 Rocket 4.3 05:09:13 12° W 05:10:35 13° W 05:13:04 10° WSW
Cosmos 1470 Rocket 4.2 05:07:00 10° S 05:11:13 59° E 05:15:27 10° NNE
SMAP 3.0 05:06:52 10° N 05:11:33 74° WNW 05:16:11 10° SSW
Meteor 2-19 Rocket 4.4 05:08:52 10° NNW 05:14:56 74° W 05:20:57 10° S
Gbstr 26 Del rocket 4.1 05:08:21 10° WSW 05:15:44 76° NNW 05:21:57 10° ENE
Cosmos 1484 Rocket 3.4 05:13:17 10° NNW 05:16:09 25° WNW 05:19:00 10° SW
USA 234 3.7 05:10:52 10° NE 05:17:26 70° SE 05:23:57 10° SW
Cosmos 540 Rocket 3.4 05:15:01 10° NNW 05:20:08 84° WSW 05:25:13 10° SSE
Cosmos 1862 Rocket 3.7 05:17:20 10° NNW 05:21:32 49° W 05:25:40 10° SSW
CZ-2D R/B 2.6 05:18:32 10° N 05:21:39 73° WNW 05:24:44 10° SSW
CBERS-1 4.2 05:17:11 10° N 05:22:04 47° WNW 05:26:55 10° SW
AQUARIUS 4.1 05:22:18 10° NNE 05:26:45 88° W 05:31:09 10° SSW
Lacrosse 4 Rocket 1.2 05:23:21 10° SW 05:27:17 64° WNW 05:31:11 10° NNE
BREEZE M DEB (TANK) 4.0 05:24:23 10° W 05:27:54 45° SSW 05:37:46 10° SE
Cosmos 1943 Rocket 2.9 05:23:32 10° WSW 05:28:21 30° NW 05:33:12 10° N
GRACE-FO 1 4.5 05:25:08 10° S 05:28:33 85° E 05:32:01 10° N
GRACE-FO 2 4.5 05:25:34 10° S 05:29:00 86° E 05:32:28 10° N
Cosmos 1656 Rocket 3.9 05:23:44 10° SSW 05:29:25 81° ESE 05:35:05 10° NNE
Meteor 1-15 Rocket 4.4 05:24:49 10° S 05:30:36 89° E 05:36:32 10° NNE
ATLAS 2AS CENTAUR R/B 3.0 05:28:08 10° NW 05:34:40 53° WSW 05:41:11 10° SSE
SL-8 Rocket 4.0 05:30:00 10° SSW 05:36:16 69° W 05:42:34 10° N
